Location: ??????
(33.3472°N, 35.4764°E)
Time: 06:15:10
(UTC+00:00)

Meteor 2-20 - Pass Details

Date: 21 August 2019
Orbit: 938 x 959 km, 82.5° (Epoch: 16 September)

Event Time Altitude Azimuth Distance (km) Brightness Sun altitude
Exits shadow 01:41:17 11° 193° (SSW) 2,618 6.4 -17.0°
Maximum altitude 01:47:14 71° 277° (W) 1,008 4.4 -15.9°
Drops below altitude 10° 01:53:22 10° 2° (N) 2,687 7.2 -14.7°
Sets 01:55:53 0° 4° (N) 3,633 7.9 -14.3°
